SCP
-0 -0 0 -0 0 0 -0 -0 -0 0 0 0 0 -0 -0 -0 -0 -0 -0 -0 -0 -1 -0 -0 -0 -0 -0 -0 -0 -0 -0 -0
0 0 -0 -0 -0 0 -0 -0 0 0 0 1 0 0 -0 -0 -0 -0 -0 -0 -1 -1 -0 -0 -0 -0 -0 -0 -0 -0 -0 -0
0 0 0 -0 -0 0 0 0 0 0 0 1 1 0 -0 -0 -0 -0 0 0 -0 -1 -1 -0 -0 -0 -0 -0 -0 -0 -0 -0
0 0 0 -0 0 -0 0 0 0 0 1 2 1 0 0 -0 -0 0 0 0 0 -0 -0 -0 -0 -0 -0 -0 -0 -0 -0 -0
0 0 0 0 -0 -0 0 0 0 0 3 1 0 0 0 -0 -0 0 0 1 1 1 0 -0 -0 -0 -0 0 -0 -0 -0 -0
0 0 0 0 0 0 0 -0 0 1 0 0 0 0 -0 -0 0 0 0 0 0 1 0 0 0 0 0 0 0 0 -0 -0
0 0 0 0 -0 0 0 0 0 1 -0 -0 -0 -0 0 0 0 0 0 0 0 0 0 0 0 0 0 0 0 0 0 0
0 0 0 0 -0 -0 0 0 -0 1 1 -0 -0 -0 0 0 0 0 0 0 0 0 0 0 0 0 0 0 0 0 0 0
0 0 0 -0 -0 -0 0 0 0 0 1 0 0 0 0 0 0 -0 0 0 0 0 0 0 0 0 0 0 0 0 0 0
0 0 0 0 -0 -0 0 -0 0 0 0 0 0 0 0 0 0 0 0 0 0 0 0 0 0 0 0 0 0 0 0 0
0 0 0 0 0 0 0 0 0 -0 0 0 0 0 0 0 0 0 0 0 0 0 0 0 0 0 0 0 0 0 0 0
0 0 0 0 0 0 0 0 0 0 0 0 0 0 -0 0 0 1 1 0 0 0 0 0 0 0 0 0 0 0 0 0
0 0 0 0 0 0 0 0 0 0 0 0 0 0 0 -0 0 1 1 1 0 0 1 0 0 0 0 0 0 0 0 0
0 0 0 0 0 0 0 0 0 0 0 0 0 0 1 0 1 2 3 2 1 1 3 1 1 1 0 0 1 1 0 0
0 0 0 0 0 0 0 0 0 0 0 0 0 0 2 2 2 2 2 2 3 3 4 3 2 1 1 0 1 1 0 0
0 0 -0 -0 0 0 0 0 0 0 0 0 0 0 0 3 4 3 3 3 4 3 3 4 2 1 1 1 1 0 0 0
-0 -0 0 0 0 0 0 0 0 0 0 0 0 0 0 4 6 6 3 2 3 4 3 4 2 2 2 2 0 0 0 0
0 0 0 0 0 0 0 0 0 0 0 0 0 0 0 3 6 7 3 3 2 4 5 4 2 2 2 1 0 0 0 0
0 0 0 0 0 0 0 0 0 0 0 0 0 0 0 2 5 6 5 3 3 4 3 3 2 2 3 1 0 0 0 0
0 0 -0 0 0 0 0 0 0 0 0 0 0 0 0 3 5 7 7 4 3 6 5 3 3 2 3 2 0 0 0 0
Wind_Speed_500mb
8 7 13 7 12 30 54 35 26 9 27 16 27 53 79 61 61 48 73 68 64 59 53 48 43 39 36 33 28 25 21 18
1 19 33 24 26 42 24 53 21 8 16 38 54 46 52 62 59 52 72 70 64 59 53 48 43 39 36 33 29 25 21 17
9 23 26 35 47 27 18 19 31 20 15 44 67 41 59 59 50 46 73 68 63 58 53 48 43 40 36 33 30 26 22 18
10 25 32 35 28 29 7 3 21 33 22 17 33 40 54 51 42 38 69 70 65 58 54 49 44 41 38 33 29 26 22 18
19 27 37 37 44 16 20 25 8 20 13 23 47 24 41 38 37 30 62 68 66 61 54 49 45 41 38 34 30 26 22 17
20 24 39 44 29 14 39 45 25 51 20 21 55 65 53 53 39 43 40 53 61 61 57 52 48 43 39 35 31 27 22 18
18 23 38 62 15 33 32 60 38 32 59 34 60 49 60 64 65 58 47 40 56 58 56 53 49 45 41 36 33 29 24 19
18 32 28 50 40 35 13 20 10 52 58 63 59 61 68 70 73 60 51 37 54 57 56 54 52 48 45 41 36 31 25 19
40 57 58 34 50 55 25 3 28 25 58 57 62 55 60 71 66 61 47 37 37 57 55 54 52 49 46 42 37 32 27 21
52 64 59 27 57 35 39 12 30 11 41 61 55 51 53 57 68 60 47 39 33 42 52 51 43 48 45 42 38 33 27 26
62 59 61 64 39 28 40 58 27 34 43 59 51 50 50 59 60 59 53 51 46 41 36 49 39 32 36 39 35 29 27 35
56 55 50 28 34 37 43 51 56 41 26 30 38 46 47 45 51 64 64 60 57 53 43 51 46 40 28 34 26 27 21 17
31 30 17 39 24 18 41 48 63 62 49 41 26 40 47 56 45 48 73 66 62 60 51 59 45 41 29 26 32 34 29 18
15 24 38 25 24 22 52 55 58 63 58 54 46 42 50 42 59 39 62 61 62 64 60 52 43 35 36 39 45 47 34 38
19 27 19 17 21 25 58 63 49 59 64 59 61 58 50 54 57 54 70 68 59 60 60 58 51 48 43 52 45 42 42 42
26 26 18 23 36 30 54 62 58 67 64 62 69 64 56 61 69 58 59 74 67 61 54 51 60 55 53 53 43 44 45 46
18 19 6 16 15 22 47 53 37 37 44 51 76 73 61 73 74 76 69 68 68 63 54 59 66 67 59 54 54 44 49 44
19 25 17 17 22 21 14 12 25 29 38 53 52 74 76 86 80 77 77 76 67 64 64 63 60 71 62 59 50 47 46 41
17 18 20 12 21 21 19 24 36 37 53 60 58 42 62 88 83 79 80 82 74 73 73 60 63 58 64 56 56 54 51 45
19 16 13 9 24 17 17 22 18 41 57 67 72 64 37 60 95 99 97 90 76 82 82 73 66 73 71 62 72 72 61 49
Wind_Direction_500mb
167 204 229 257 145 151 175 238 236 308 60 73 119 131 143 161 161 166 168 168 167 167 167 164 161 158 153 149 148 148 148 144
154 254 271 258 271 193 215 232 166 240 100 54 138 140 158 163 161 173 171 169 169 169 169 168 166 163 159 156 154 154 155 154
258 268 271 276 275 222 193 175 171 163 62 71 67 139 152 165 166 178 171 169 170 171 171 171 170 167 165 163 160 160 160 162
279 281 282 280 291 359 91 66 114 128 94 50 71 127 157 168 168 193 174 171 169 171 173 174 173 171 169 168 167 167 166 167
265 272 284 286 306 276 302 321 171 139 71 118 136 175 171 172 191 172 175 174 172 172 174 175 175 174 172 173 174 173 172 172
270 281 279 290 318 42 330 312 140 153 151 216 173 175 169 167 188 177 174 183 177 174 176 177 176 177 177 178 179 180 179 179
255 269 280 290 317 296 271 296 337 114 154 150 147 156 167 167 175 176 178 186 189 182 179 179 180 180 182 184 186 186 185 184
244 264 278 291 307 292 246 319 302 114 122 135 152 166 169 166 173 183 177 185 196 189 185 185 186 187 187 189 191 191 190 186
260 266 280 297 314 319 299 196 281 296 142 150 159 169 177 173 180 190 183 186 190 194 192 191 192 192 193 193 194 194 194 186
259 266 279 288 299 311 315 295 145 159 163 154 160 171 183 183 175 183 191 202 195 193 196 198 193 201 200 198 197 200 198 182
264 258 260 276 284 289 298 301 302 302 174 161 165 179 191 192 194 196 199 202 192 180 188 203 196 194 204 203 204 202 197 177
273 269 267 276 281 286 302 294 300 311 304 174 187 187 190 209 199 196 195 195 191 180 183 194 200 205 211 195 179 182 186 180
278 283 275 278 283 282 287 289 290 292 292 294 201 196 199 209 212 197 189 184 190 179 182 188 204 203 203 182 186 188 190 196
279 266 272 260 261 261 270 277 264 275 280 280 278 211 205 206 200 193 182 181 186 180 182 189 188 192 183 202 199 195 201 194
275 249 252 241 254 244 245 255 258 260 260 265 268 256 211 204 202 181 181 183 182 186 185 196 195 188 190 190 194 207 209 209
248 258 257 245 247 253 237 233 239 249 257 256 253 251 242 207 194 192 187 191 199 199 197 204 207 201 200 199 202 208 214 212
280 279 277 273 290 260 246 228 213 237 272 267 238 243 227 200 196 193 195 196 197 203 210 211 209 205 204 203 200 208 206 211
281 284 281 296 291 286 297 264 220 243 276 283 263 241 228 190 196 196 195 199 197 207 211 212 208 207 208 193 204 210 215 226
254 287 296 328 292 294 287 282 283 272 267 275 283 279 233 206 199 199 202 205 205 205 210 200 207 202 201 200 205 210 218 230
270 248 247 209 282 289 278 268 269 260 266 271 273 275 253 206 196 199 203 203 206 205 200 200 199 195 198 201 205 214 219 216
Wind_Speed_850mb
8 7 13 7 12 30 54 35 26 9 27 16 27 53 79 61 61 48 73 68 64 59 53 48 43 39 36 33 28 25 21 18
1 19 33 24 26 42 24 53 21 8 16 38 54 46 52 62 59 52 72 70 64 59 53 48 43 39 36 33 29 25 21 17
9 23 26 35 47 27 18 19 31 20 15 44 67 41 59 59 50 46 73 68 63 58 53 48 43 40 36 33 30 26 22 18
10 25 32 35 28 29 7 3 21 33 22 17 33 40 54 51 42 38 69 70 65 58 54 49 44 41 38 33 29 26 22 18
19 27 37 37 44 16 20 25 8 20 13 23 47 24 41 38 37 30 62 68 66 61 54 49 45 41 38 34 30 26 22 17
20 24 39 44 29 14 39 45 25 51 20 21 55 65 53 53 39 43 40 53 61 61 57 52 48 43 39 35 31 27 22 18
18 23 38 62 15 33 32 60 38 32 59 34 60 49 60 64 65 58 47 40 56 58 56 53 49 45 41 36 33 29 24 19
18 32 28 50 40 35 13 20 10 52 58 63 59 61 68 70 73 60 51 37 54 57 56 54 52 48 45 41 36 31 25 19
40 57 58 34 50 55 25 3 28 25 58 57 62 55 60 71 66 61 47 37 37 57 55 54 52 49 46 42 37 32 27 21
52 64 59 27 57 35 39 12 30 11 41 61 55 51 53 57 68 60 47 39 33 42 52 51 43 48 45 42 38 33 27 26
62 59 61 64 39 28 40 58 27 34 43 59 51 50 50 59 60 59 53 51 46 41 36 49 39 32 36 39 35 29 27 35
56 55 50 28 34 37 43 51 56 41 26 30 38 46 47 45 51 64 64 60 57 53 43 51 46 40 28 34 26 27 21 17
31 30 17 39 24 18 41 48 63 62 49 41 26 40 47 56 45 48 73 66 62 60 51 59 45 41 29 26 32 34 29 18
15 24 38 25 24 22 52 55 58 63 58 54 46 42 50 42 59 39 62 61 62 64 60 52 43 35 36 39 45 47 34 38
19 27 19 17 21 25 58 63 49 59 64 59 61 58 50 54 57 54 70 68 59 60 60 58 51 48 43 52 45 42 42 42
26 26 18 23 36 30 54 62 58 67 64 62 69 64 56 61 69 58 59 74 67 61 54 51 60 55 53 53 43 44 45 46
18 19 6 16 15 22 47 53 37 37 44 51 76 73 61 73 74 76 69 68 68 63 54 59 66 67 59 54 54 44 49 44
19 25 17 17 22 21 14 12 25 29 38 53 52 74 76 86 80 77 77 76 67 64 64 63 60 71 62 59 50 47 46 41
17 18 20 12 21 21 19 24 36 37 53 60 58 42 62 88 83 79 80 82 74 73 73 60 63 58 64 56 56 54 51 45
19 16 13 9 24 17 17 22 18 41 57 67 72 64 37 60 95 99 97 90 76 82 82 73 66 73 71 62 72 72 61 49
Wind_Direction_850mb
167 204 229 257 145 151 175 238 236 308 60 73 119 131 143 161 161 166 168 168 167 167 167 164 161 158 153 149 148 148 148 144
154 254 271 258 271 193 215 232 166 240 100 54 138 140 158 163 161 173 171 169 169 169 169 168 166 163 159 156 154 154 155 154
258 268 271 276 275 222 193 175 171 163 62 71 67 139 152 165 166 178 171 169 170 171 171 171 170 167 165 163 160 160 160 162
279 281 282 280 291 359 91 66 114 128 94 50 71 127 157 168 168 193 174 171 169 171 173 174 173 171 169 168 167 167 166 167
265 272 284 286 306 276 302 321 171 139 71 118 136 175 171 172 191 172 175 174 172 172 174 175 175 174 172 173 174 173 172 172
270 281 279 290 318 42 330 312 140 153 151 216 173 175 169 167 188 177 174 183 177 174 176 177 176 177 177 178 179 180 179 179
255 269 280 290 317 296 271 296 337 114 154 150 147 156 167 167 175 176 178 186 189 182 179 179 180 180 182 184 186 186 185 184
244 264 278 291 307 292 246 319 302 114 122 135 152 166 169 166 173 183 177 185 196 189 185 185 186 187 187 189 191 191 190 186
260 266 280 297 314 319 299 196 281 296 142 150 159 169 177 173 180 190 183 186 190 194 192 191 192 192 193 193 194 194 194 186
259 266 279 288 299 311 315 295 145 159 163 154 160 171 183 183 175 183 191 202 195 193 196 198 193 201 200 198 197 200 198 182
264 258 260 276 284 289 298 301 302 302 174 161 165 179 191 192 194 196 199 202 192 180 188 203 196 194 204 203 204 202 197 177
273 269 267 276 281 286 302 294 300 311 304 174 187 187 190 209 199 196 195 195 191 180 183 194 200 205 211 195 179 182 186 180
278 283 275 278 283 282 287 289 290 292 292 294 201 196 199 209 212 197 189 184 190 179 182 188 204 203 203 182 186 188 190 196
279 266 272 260 261 261 270 277 264 275 280 280 278 211 205 206 200 193 182 181 186 180 182 189 188 192 183 202 199 195 201 194
275 249 252 241 254 244 245 255 258 260 260 265 268 256 211 204 202 181 181 183 182 186 185 196 195 188 190 190 194 207 209 209
248 258 257 245 247 253 237 233 239 249 257 256 253 251 242 207 194 192 187 191 199 199 197 204 207 201 200 199 202 208 214 212
280 279 277 273 290 260 246 228 213 237 272 267 238 243 227 200 196 193 195 196 197 203 210 211 209 205 204 203 200 208 206 211
281 284 281 296 291 286 297 264 220 243 276 283 263 241 228 190 196 196 195 199 197 207 211 212 208 207 208 193 204 210 215 226
254 287 296 328 292 294 287 282 283 272 267 275 283 279 233 206 199 199 202 205 205 205 210 200 207 202 201 200 205 210 218 230
270 248 247 209 282 289 278 268 269 260 266 271 273 275 253 206 196 199 203 203 206 205 200 200 199 195 198 201 205 214 219 216